| time (UTC) | temp F | wind direction | speed MPH | gust MPH | rain 1hr in | rain 24hr in | rain mn in | humidity % | barometer mb |
| 20260906205104 | 103 | 174 | 8.0 | 16.0 | 0.00 | 0.00 | 0.00 | 35 | 1012.3 |
| 20260906204104 | 103 | 173 | 9.0 | 16.0 | 0.00 | 0.00 | 0.00 | 36 | 1012.4 |
| 20260906203604 | 103 | 174 | 6.0 | 12.0 | 0.00 | 0.00 | 0.00 | 36 | 1012.5 |
| 20260906203104 | 104 | 192 | 3.0 | 12.0 | 0.00 | 0.00 | 0.00 | 35 | 1012.5 |
| 20260906202604 | 104 | 119 | 5.0 | 9.0 | 0.00 | 0.00 | 0.00 | 35 | 1012.6 |
| 20260906202105 | 103 | 221 | 3.0 | 9.0 | 0.00 | 0.00 | 0.00 | 36 | 1012.6 |
| 20260906201104 | 102 | 118 | 7.0 | 13.0 | 0.00 | 0.00 | 0.00 | 36 | 1012.7 |
| 20260906200604 | 102 | 215 | 4.0 | 16.0 | 0.00 | 0.00 | 0.00 | 37 | 1012.8 |
| 20260906200104 | 103 | 139 | 11.0 | 16.0 | 0.00 | 0.00 | 0.00 | 37 | 1012.9 |
| 20260906195605 | 103 | 121 | 5.0 | 15.0 | 0.00 | 0.00 | 0.00 | 37 | 1013.0 |
| 20260906195105 | 103 | 193 | 6.0 | 8.0 | 0.00 | 0.00 | 0.00 | 35 | 1013.0 |
| 20260906194604 | 102 | 144 | 4.0 | 10.0 | 0.00 | 0.00 | 0.00 | 39 | 1013.1 |
| 20260906194104 | 101 | 53 | 5.0 | 15.0 | 0.00 | 0.00 | 0.00 | 40 | 1013.3 |
| 20260906193604 | 102 | 134 | 8.0 | 15.0 | 0.00 | 0.00 | 0.00 | 39 | 1013.3 |
| 20260906193104 | 102 | 90 | 5.0 | 14.0 | 0.00 | 0.00 | 0.00 | 38 | 1013.4 |
| 20260906192104 | 101 | 173 | 1.0 | 10.0 | 0.00 | 0.00 | 0.00 | 40 | 1013.5 |
| 20260906191604 | 101 | 178 | 3.0 | 14.0 | 0.00 | 0.00 | 0.00 | 39 | 1013.6 |
| 20260906191104 | 101 | 205 | 9.0 | 16.0 | 0.00 | 0.00 | 0.00 | 39 | 1013.7 |
| 20260906190103 | 101 | 152 | 8.0 | 13.0 | 0.00 | 0.00 | 0.00 | 39 | 1013.8 |
| 20260906185604 | 99 | 192 | 4.0 | 12.0 | 0.00 | 0.00 | 0.00 | 42 | 1013.8 |
| 20260906185104 | 100 | 127 | 5.0 | 12.0 | 0.00 | 0.00 | 0.00 | 41 | 1013.9 |
| 20260906184603 | 101 | 183 | 6.0 | 10.0 | 0.00 | 0.00 | 0.00 | 40 | 1013.9 |
| 20260906184104 | 101 | 101 | 4.0 | 10.0 | 0.00 | 0.00 | 0.00 | 41 | 1014.0 |
| 20260906182604 | 99 | 181 | 4.0 | 12.0 | 0.00 | 0.00 | 0.00 | 41 | 1014.2 |
| 20260906182104 | 98 | 178 | 2.0 | 9.0 | 0.00 | 0.00 | 0.00 | 45 | 1014.3 |
| 20260906181604 | 97 | 67 | 1.0 | 9.0 | 0.00 | 0.00 | 0.00 | 45 | 1014.3 |
| 20260906181104 | 97 | 109 | 4.0 | 12.0 | 0.00 | 0.00 | 0.00 | 44 | 1014.4 |
| 20260906180604 | 97 | 145 | 3.0 | 12.0 | 0.00 | 0.00 | 0.00 | 44 | 1014.4 |
| 20260906175604 | 98 | 126 | 5.0 | 10.0 | 0.00 | 0.00 | 0.00 | 45 | 1014.6 |
| 20260906175104 | 98 | 134 | 3.0 | 9.0 | 0.00 | 0.00 | 0.00 | 45 | 1014.7 |
| 20260906174604 | 98 | 170 | 3.0 | 12.0 | 0.00 | 0.00 | 0.00 | 45 | 1014.8 |
| 20260906174103 | 97 | 187 | 2.0 | 16.0 | 0.00 | 0.00 | 0.00 | 45 | 1014.9 |
| 20260906173604 | 98 | 177 | 9.0 | 16.0 | 0.00 | 0.00 | 0.00 | 44 | 1015.0 |
| 20260906172604 | 98 | 125 | 4.0 | 9.0 | 0.00 | 0.00 | 0.00 | 45 | 1015.2 |
| 20260906171604 | 98 | 155 | 2.0 | 12.0 | 0.00 | 0.00 | 0.00 | 46 | 1015.3 |
| 20260906171104 | 98 | 167 | 5.0 | 12.0 | 0.00 | 0.00 | 0.00 | 45 | 1015.4 |
| 20260906170603 | 98 | 158 | 7.0 | 12.0 | 0.00 | 0.00 | 0.00 | 44 | 1015.5 |
| 20260906170105 | 98 | 217 | 1.0 | 8.0 | 0.00 | 0.00 | 0.00 | 46 | 1015.5 |
| 20260906165604 | 98 | 172 | 2.0 | 12.0 | 0.00 | 0.00 | 0.00 | 45 | 1015.7 |
| 20260906165104 | 98 | 150 | 5.0 | 12.0 | 0.00 | 0.00 | 0.00 | 46 | 1015.7 |
| 20260906164604 | 98 | 165 | 6.0 | 12.0 | 0.00 | 0.00 | 0.00 | 46 | 1015.8 |
| 20260906164103 | 98 | 53 | 3.0 | 10.0 | 0.00 | 0.00 | 0.00 | 47 | 1015.8 |
| 20260906163604 | 97 | 77 | 3.0 | 10.0 | 0.00 | 0.00 | 0.00 | 47 | 1015.9 |
| 20260906162604 | 97 | 285 | 3.0 | 10.0 | 0.00 | 0.00 | 0.00 | 48 | 1015.8 |
| 20260906162103 | 97 | 286 | 2.0 | 10.0 | 0.00 | 0.00 | 0.00 | 48 | 1015.9 |
| 20260906161604 | 96 | 217 | 2.0 | 8.0 | 0.00 | 0.00 | 0.00 | 48 | 1015.9 |
| 20260906161104 | 96 | 222 | 3.0 | 8.0 | 0.00 | 0.00 | 0.00 | 49 | 1015.9 |
| 20260906160604 | 95 | 189 | 5.0 | 10.0 | 0.00 | 0.00 | 0.00 | 49 | 1015.9 |
| 20260906155604 | 95 | 226 | 3.0 | 10.0 | 0.00 | 0.00 | 0.00 | 49 | 1015.7 |
| 20260906155103 | 94 | 220 | 5.0 | 10.0 | 0.00 | 0.00 | 0.00 | 50 | 1015.7 |
| 20260906154604 | 94 | 223 | 5.0 | 9.0 | 0.00 | 0.00 | 0.00 | 50 | 1015.7 |
| 20260906154104 | 94 | 181 | 3.0 | 9.0 | 0.00 | 0.00 | 0.00 | 51 | 1015.7 |
| 20260906153603 | 93 | 212 | 5.0 | 9.0 | 0.00 | 0.00 | 0.00 | 52 | 1015.6 |
| 20260906153104 | 93 | 215 | 4.0 | 8.0 | 0.00 | 0.00 | 0.00 | 53 | 1015.7 |
| 20260906152104 | 92 | 234 | 3.0 | 8.0 | 0.00 | 0.00 | 0.00 | 54 | 1015.7 |
| 20260906151604 | 92 | 230 | 5.0 | 8.0 | 0.00 | 0.00 | 0.00 | 54 | 1015.6 |
| 20260906151104 | 92 | 212 | 5.0 | 9.0 | 0.00 | 0.00 | 0.00 | 54 | 1015.7 |
| 20260906150104 | 92 | 211 | 4.0 | 9.0 | 0.00 | 0.00 | 0.00 | 54 | 1015.6 |
| 20260906145604 | 91 | 212 | 5.0 | 8.0 | 0.00 | 0.00 | 0.00 | 54 | 1015.6 |
| 20260906145104 | 91 | 242 | 3.0 | 7.0 | 0.00 | 0.00 | 0.00 | 55 | 1015.6 |
| 20260906144603 | 91 | 226 | 5.0 | 8.0 | 0.00 | 0.00 | 0.00 | 56 | 1015.6 |
| 20260906144104 | 90 | 228 | 4.0 | 8.0 | 0.00 | 0.00 | 0.00 | 56 | 1015.6 |
| 20260906143604 | 90 | 230 | 5.0 | 9.0 | 0.00 | 0.00 | 0.00 | 57 | 1015.7 |
| 20260906143104 | 89 | 236 | 5.0 | 10.0 | 0.00 | 0.00 | 0.00 | 58 | 1015.6 |
| 20260906142604 | 89 | 213 | 6.0 | 10.0 | 0.00 | 0.00 | 0.00 | 59 | 1015.6 |
| 20260906141604 | 88 | 212 | 6.0 | 9.0 | 0.00 | 0.00 | 0.00 | 60 | 1015.5 |
| 20260906141104 | 87 | 205 | 5.0 | 9.0 | 0.00 | 0.00 | 0.00 | 60 | 1015.6 |
| 20260906135604 | 86 | 219 | 6.0 | 9.0 | 0.00 | 0.00 | 0.00 | 61 | 1015.4 |
| 20260906135104 | 86 | 207 | 6.0 | 10.0 | 0.00 | 0.00 | 0.00 | 61 | 1015.3 |
| 20260906134604 | 86 | 222 | 6.0 | 10.0 | 0.00 | 0.00 | 0.00 | 61 | 1015.3 |
| 20260906133604 | 84 | 213 | 5.0 | 8.0 | 0.00 | 0.00 | 0.00 | 63 | 1015.3 |
| 20260906133103 | 83 | 193 | 3.0 | 7.0 | 0.00 | 0.00 | 0.00 | 64 | 1015.3 |
| 20260906132604 | 83 | 205 | 5.0 | 7.0 | 0.00 | 0.00 | 0.00 | 64 | 1015.3 |
| 20260906132104 | 83 | 194 | 5.0 | 7.0 | 0.00 | 0.00 | 0.00 | 65 | 1015.2 |
| 20260906131604 | 83 | 186 | 5.0 | 7.0 | 0.00 | 0.00 | 0.00 | 66 | 1015.2 |
| 20260906130604 | 82 | 194 | 3.0 | 6.0 | 0.00 | 0.00 | 0.00 | 67 | 1015.0 |
| 20260906130104 | 81 | 174 | 3.0 | 6.0 | 0.00 | 0.00 | 0.00 | 67 | 1015.0 |
| 20260906125104 | 81 | 180 | 3.0 | 6.0 | 0.00 | 0.00 | 0.00 | 68 | 1014.9 |
| 20260906124604 | 81 | 177 | 3.0 | 6.0 | 0.00 | 0.00 | 0.00 | 68 | 1014.9 |
| 20260906123604 | 80 | 185 | 3.0 | 5.0 | 0.00 | 0.00 | 0.00 | 68 | 1014.7 |
| 20260906122603 | 80 | 169 | 1.0 | 5.0 | 0.00 | 0.00 | 0.00 | 69 | 1014.6 |
| 20260906122104 | 80 | 198 | 0.0 | 2.0 | 0.00 | 0.00 | 0.00 | 69 | 1014.6 |
| 20260906121604 | 80 | 198 | 0.0 | 2.0 | 0.00 | 0.00 | 0.00 | 69 | 1014.6 |
| 20260906121104 | 80 | 198 | 0.0 | 0.0 | 0.00 | 0.00 | 0.00 | 69 | 1014.6 |
| 20260906115604 | 80 | 198 | 2.0 | 5.0 | 0.00 | 0.00 | 0.00 | 67 | 1014.5 |
| 20260906114103 | 81 | 175 | 4.0 | 6.0 | 0.00 | 0.00 | 0.00 | 66 | 1014.3 |
| 20260906113603 | 81 | 175 | 3.0 | 7.0 | 0.00 | 0.00 | 0.00 | 66 | 1014.2 |
| 20260906112103 | 81 | 165 | 3.0 | 6.0 | 0.00 | 0.00 | 0.00 | 66 | 1014.0 |
| 20260906111604 | 81 | 170 | 3.0 | 6.0 | 0.00 | 0.00 | 0.00 | 66 | 1013.9 |
| 20260906111103 | 81 | 163 | 3.0 | 6.0 | 0.00 | 0.00 | 0.00 | 66 | 1013.9 |
| 20260906110604 | 81 | 150 | 3.0 | 5.0 | 0.00 | 0.00 | 0.00 | 66 | 1013.9 |
| 20260906110104 | 81 | 162 | 3.0 | 5.0 | 0.00 | 0.00 | 0.00 | 66 | 1013.9 |
| 20260906105603 | 81 | 171 | 3.0 | 7.0 | 0.00 | 0.00 | 0.00 | 66 | 1013.9 |
| 20260906105104 | 81 | 164 | 5.0 | 7.0 | 0.00 | 0.00 | 0.00 | 66 | 1013.9 |
| 20260906104604 | 81 | 166 | 4.0 | 7.0 | 0.00 | 0.00 | 0.00 | 65 | 1013.8 |
| 20260906104104 | 81 | 176 | 3.0 | 6.0 | 0.00 | 0.00 | 0.00 | 65 | 1013.7 |
| 20260906103603 | 81 | 162 | 3.0 | 6.0 | 0.00 | 0.00 | 0.00 | 65 | 1013.7 |
| 20260906103103 | 81 | 160 | 3.0 | 5.0 | 0.00 | 0.00 | 0.00 | 65 | 1013.7 |
| 20260906102604 | 81 | 157 | 3.0 | 5.0 | 0.00 | 0.00 | 0.00 | 65 | 1013.7 |
| 20260906102104 | 81 | 186 | 2.0 | 3.0 | 0.00 | 0.00 | 0.00 | 65 | 1013.7 |
| 20260906101603 | 81 | 186 | 0.0 | 3.0 | 0.00 | 0.00 | 0.00 | 64 | 1013.7 |
| 20260906101104 | 81 | 186 | 2.0 | 3.0 | 0.00 | 0.00 | 0.00 | 64 | 1013.8 |
| 20260906100103 | 81 | 173 | 2.0 | 5.0 | 0.00 | 0.00 | 0.00 | 63 | 1013.6 |
| 20260906095604 | 81 | 184 | 2.0 | 3.0 | 0.00 | 0.00 | 0.00 | 63 | 1013.7 |
| 20260906095104 | 81 | 184 | 3.0 | 3.0 | 0.00 | 0.00 | 0.00 | 63 | 1013.6 |
| 20260906094103 | 81 | 198 | 2.0 | 3.0 | 0.00 | 0.00 | 0.00 | 64 | 1013.6 |
| 20260906093603 | 81 | 198 | 3.0 | 3.0 | 0.00 | 0.00 | 0.00 | 63 | 1013.6 |
| 20260906093103 | 82 | 198 | 3.0 | 3.0 | 0.00 | 0.00 | 0.00 | 63 | 1013.6 |
| 20260906092104 | 82 | 178 | 2.0 | 3.0 | 0.00 | 0.00 | 0.00 | 63 | 1013.8 |
| 20260906091604 | 82 | 178 | 1.0 | 3.0 | 0.00 | 0.00 | 0.00 | 62 | 1013.7 |
| 20260906091104 | 82 | 178 | 2.0 | 3.0 | 0.00 | 0.00 | 0.00 | 62 | 1013.6 |
| 20260906090604 | 82 | 178 | 2.0 | 3.0 | 0.00 | 0.00 | 0.00 | 62 | 1013.5 |
| 20260906085604 | 82 | 177 | 2.0 | 3.0 | 0.00 | 0.00 | 0.00 | 61 | 1013.5 |
| 20260906084103 | 82 | 190 | 3.0 | 5.0 | 0.00 | 0.00 | 0.00 | 62 | 1013.5 |
| 20260906083604 | 82 | 197 | 4.0 | 6.0 | 0.00 | 0.00 | 0.00 | 61 | 1013.4 |
| 20260906083104 | 83 | 203 | 3.0 | 6.0 | 0.00 | 0.00 | 0.00 | 61 | 1013.5 |
| 20260906082603 | 83 | 197 | 4.0 | 5.0 | 0.00 | 0.00 | 0.00 | 61 | 1013.5 |
| 20260906082103 | 83 | 194 | 3.0 | 5.0 | 0.00 | 0.00 | 0.00 | 60 | 1013.4 |
| 20260906081603 | 83 | 194 | 3.0 | 5.0 | 0.00 | 0.00 | 0.00 | 60 | 1013.4 |
| 20260906081104 | 83 | 193 | 3.0 | 3.0 | 0.00 | 0.00 | 0.00 | 60 | 1013.3 |
| 20260906080604 | 83 | 198 | 3.0 | 5.0 | 0.00 | 0.00 | 0.00 | 60 | 1013.4 |
| 20260906080104 | 83 | 200 | 3.0 | 5.0 | 0.00 | 0.00 | 0.00 | 60 | 1013.4 |
| 20260906075604 | 83 | 188 | 3.0 | 3.0 | 0.00 | 0.00 | 0.00 | 60 | 1013.4 |
| 20260906075104 | 83 | 188 | 3.0 | 3.0 | 0.00 | 0.00 | 0.00 | 60 | 1013.4 |
| 20260906074604 | 83 | 188 | 2.0 | 3.0 | 0.00 | 0.00 | 0.00 | 59 | 1013.4 |
| 20260906073103 | 84 | 198 | 3.0 | 5.0 | 0.00 | 0.00 | 0.00 | 59 | 1013.4 |
| 20260906072603 | 84 | 192 | 4.0 | 5.0 | 0.00 | 0.00 | 0.00 | 59 | 1013.5 |
| 20260906072103 | 84 | 190 | 3.0 | 5.0 | 0.00 | 0.00 | 0.00 | 59 | 1013.5 |
| 20260906070604 | 84 | 189 | 3.0 | 5.0 | 0.00 | 0.00 | 0.00 | 59 | 1013.5 |
| 20260906065604 | 84 | 180 | 3.0 | 6.0 | 0.00 | 0.00 | 0.00 | 58 | 1013.5 |
| 20260906065104 | 84 | 180 | 3.0 | 6.0 | 0.00 | 0.00 | 0.00 | 58 | 1013.5 |
| 20260906064603 | 84 | 177 | 3.0 | 5.0 | 0.00 | 0.00 | 0.00 | 58 | 1013.5 |
| 20260906064103 | 85 | 187 | 3.0 | 5.0 | 0.00 | 0.00 | 0.00 | 58 | 1013.4 |
| 20260906063603 | 85 | 187 | 3.0 | 5.0 | 0.00 | 0.00 | 0.00 | 58 | 1013.4 |
| 20260906063103 | 85 | 192 | 3.0 | 6.0 | 0.00 | 0.00 | 0.00 | 57 | 1013.5 |
| 20260906062604 | 86 | 197 | 3.0 | 6.0 | 0.00 | 0.00 | 0.00 | 56 | 1013.5 |
| 20260906062103 | 86 | 195 | 4.0 | 6.0 | 0.00 | 0.00 | 0.00 | 56 | 1013.5 |
| 20260906061604 | 86 | 187 | 5.0 | 6.0 | 0.00 | 0.00 | 0.00 | 56 | 1013.5 |
| 20260906060603 | 85 | 176 | 3.0 | 6.0 | 0.00 | 0.00 | 0.00 | 56 | 1013.6 |
| 20260906055603 | 86 | 188 | 3.0 | 6.0 | 0.00 | 0.00 | 0.00 | 56 | 1013.5 |
| 20260906055103 | 86 | 193 | 4.0 | 6.0 | 0.00 | 0.00 | 0.00 | 56 | 1013.4 |
| 20260906054603 | 86 | 191 | 3.0 | 6.0 | 0.00 | 0.00 | 0.00 | 56 | 1013.5 |
| 20260906054103 | 86 | 197 | 3.0 | 5.0 | 0.00 | 0.00 | 0.00 | 56 | 1013.5 |
| 20260906053603 | 86 | 197 | 5.0 | 6.0 | 0.00 | 0.00 | 0.00 | 56 | 1013.4 |
| 20260906053104 | 86 | 199 | 3.0 | 6.0 | 0.00 | 0.00 | 0.00 | 55 | 1013.4 |
| 20260906052603 | 86 | 199 | 3.0 | 6.0 | 0.00 | 0.00 | 0.00 | 55 | 1013.3 |
| 20260906052103 | 86 | 191 | 4.0 | 6.0 | 0.00 | 0.00 | 0.00 | 55 | 1013.2 |
| 20260906051104 | 87 | 189 | 4.0 | 6.0 | 0.00 | 0.00 | 0.00 | 55 | 1013.2 |
| 20260906050604 | 86 | 183 | 4.0 | 6.0 | 0.00 | 0.00 | 0.00 | 55 | 1013.2 |
| 20260906050104 | 86 | 174 | 3.0 | 6.0 | 0.00 | 0.00 | 0.00 | 55 | 1013.1 |
| 20260906045604 | 86 | 195 | 2.0 | 5.0 | 0.00 | 0.00 | 0.00 | 56 | 1013.1 |
| 20260906045104 | 87 | 199 | 2.0 | 5.0 | 0.00 | 0.00 | 0.00 | 55 | 1013.0 |
| 20260906044604 | 87 | 188 | 3.0 | 5.0 | 0.00 | 0.00 | 0.00 | 55 | 1013.0 |
| 20260906044104 | 87 | 180 | 3.0 | 5.0 | 0.00 | 0.00 | 0.00 | 54 | 1013.0 |
| 20260906043604 | 87 | 179 | 3.0 | 6.0 | 0.00 | 0.00 | 0.00 | 54 | 1013.1 |
| 20260906043104 | 87 | 181 | 3.0 | 6.0 | 0.00 | 0.00 | 0.00 | 54 | 1013.1 |
| 20260906042604 | 87 | 182 | 3.0 | 6.0 | 0.00 | 0.00 | 0.00 | 54 | 1013.1 |
| 20260906042104 | 87 | 179 | 5.0 | 6.0 | 0.00 | 0.00 | 0.00 | 55 | 1013.2 |
| 20260906041104 | 87 | 169 | 3.0 | 5.0 | 0.00 | 0.00 | 0.00 | 56 | 1013.3 |
| 20260906040603 | 87 | 175 | 2.0 | 5.0 | 0.00 | 0.00 | 0.00 | 55 | 1013.3 |
| 20260906040103 | 87 | 175 | 2.0 | 5.0 | 0.00 | 0.00 | 0.00 | 55 | 1013.3 |
| 20260906035603 | 88 | 172 | 2.0 | 5.0 | 0.00 | 0.00 | 0.00 | 54 | 1013.3 |
| 20260906035103 | 88 | 182 | 2.0 | 5.0 | 0.00 | 0.00 | 0.00 | 53 | 1013.2 |
| 20260906034604 | 88 | 171 | 3.0 | 5.0 | 0.00 | 0.00 | 0.00 | 52 | 1013.3 |
| 20260906034104 | 89 | 171 | 3.0 | 5.0 | 0.00 | 0.00 | 0.00 | 52 | 1013.2 |
| 20260906033604 | 89 | 171 | 3.0 | 5.0 | 0.00 | 0.00 | 0.00 | 51 | 1013.1 |
| 20260906033104 | 89 | 163 | 3.0 | 5.0 | 0.00 | 0.00 | 0.00 | 51 | 1013.0 |
| 20260906032604 | 89 | 160 | 3.0 | 5.0 | 0.00 | 0.00 | 0.00 | 51 | 1013.1 |
| 20260906031603 | 90 | 178 | 2.0 | 5.0 | 0.00 | 0.00 | 0.00 | 50 | 1013.0 |
| 20260906031103 | 90 | 167 | 3.0 | 5.0 | 0.00 | 0.00 | 0.00 | 50 | 1013.0 |
| 20260906030603 | 90 | 175 | 2.0 | 5.0 | 0.00 | 0.00 | 0.00 | 49 | 1013.0 |
| 20260906025603 | 91 | 171 | 3.0 | 7.0 | 0.00 | 0.00 | 0.00 | 48 | 1013.0 |
| 20260906025104 | 91 | 168 | 4.0 | 7.0 | 0.00 | 0.00 | 0.00 | 48 | 1013.0 |
| 20260906024604 | 91 | 171 | 5.0 | 7.0 | 0.00 | 0.00 | 0.00 | 48 | 1012.9 |
| 20260906024104 | 91 | 174 | 3.0 | 6.0 | 0.00 | 0.00 | 0.00 | 48 | 1012.8 |
| 20260906023604 | 91 | 173 | 4.0 | 6.0 | 0.00 | 0.00 | 0.00 | 48 | 1012.9 |
| 20260906023103 | 91 | 159 | 3.0 | 5.0 | 0.00 | 0.00 | 0.00 | 49 | 1012.8 |
| 20260906022604 | 91 | 165 | 3.0 | 5.0 | 0.00 | 0.00 | 0.00 | 48 | 1012.7 |
| 20260906022104 | 91 | 161 | 3.0 | 5.0 | 0.00 | 0.00 | 0.00 | 48 | 1012.6 |
| 20260906021603 | 91 | 161 | 2.0 | 3.0 | 0.00 | 0.00 | 0.00 | 48 | 1012.6 |
| 20260906021104 | 91 | 161 | 2.0 | 3.0 | 0.00 | 0.00 | 0.00 | 48 | 1012.5 |
| 20260906020603 | 91 | 161 | 2.0 | 3.0 | 0.00 | 0.00 | 0.00 | 48 | 1012.4 |
| 20260906020104 | 91 | 161 | 1.0 | 2.0 | 0.00 | 0.00 | 0.00 | 48 | 1012.4 |
| 20260906015603 | 92 | 161 | 1.0 | 3.0 | 0.00 | 0.00 | 0.00 | 48 | 1012.5 |
| 20260906015103 | 92 | 161 | 2.0 | 3.0 | 0.00 | 0.00 | 0.00 | 47 | 1012.4 |
| 20260906014604 | 93 | 161 | 1.0 | 2.0 | 0.00 | 0.00 | 0.00 | 46 | 1012.4 |
| 20260906014105 | 93 | 161 | 1.0 | 2.0 | 0.00 | 0.00 | 0.00 | 46 | 1012.3 |
| 20260906013605 | 94 | 161 | 1.0 | 3.0 | 0.00 | 0.00 | 0.00 | 45 | 1012.3 |
| 20260906013105 | 94 | 161 | 2.0 | 3.0 | 0.00 | 0.00 | 0.00 | 45 | 1012.1 |
| 20260906012605 | 94 | 161 | 2.0 | 5.0 | 0.00 | 0.00 | 0.00 | 45 | 1012.1 |
| 20260906012105 | 94 | 161 | 3.0 | 6.0 | 0.00 | 0.00 | 0.00 | 45 | 1012.0 |
| 20260906011605 | 94 | 171 | 4.0 | 6.0 | 0.00 | 0.00 | 0.00 | 44 | 1011.9 |
| 20260906011105 | 95 | 176 | 4.0 | 6.0 | 0.00 | 0.00 | 0.00 | 44 | 1011.9 |
| 20260906010605 | 95 | 189 | 4.0 | 6.0 | 0.00 | 0.00 | 0.00 | 43 | 1011.9 |
| 20260906005105 | 96 | 170 | 3.0 | 6.0 | 0.00 | 0.00 | 0.00 | 42 | 1011.8 |
| 20260906004605 | 96 | 178 | 2.0 | 7.0 | 0.00 | 0.00 | 0.00 | 42 | 1011.8 |
| 20260906004105 | 97 | 173 | 5.0 | 7.0 | 0.00 | 0.00 | 0.00 | 42 | 1011.7 |
| 20260906003605 | 97 | 182 | 5.0 | 12.0 | 0.00 | 0.00 | 0.00 | 41 | 1011.7 |
| 20260906002605 | 98 | 182 | 6.0 | 10.0 | 0.00 | 0.00 | 0.00 | 41 | 1011.7 |
| 20260906002105 | 98 | 168 | 6.0 | 10.0 | 0.00 | 0.00 | 0.00 | 40 | 1011.6 |
| 20260906001105 | 98 | 177 | 6.0 | 10.0 | 0.00 | 0.00 | 0.00 | 40 | 1011.7 |
| 20260906000605 | 99 | 170 | 6.0 | 10.0 | 0.00 | 0.00 | 0.00 | 40 | 1011.6 |
| 20260906000105 | 99 | 145 | 6.0 | 10.0 | 0.00 | 0.00 | 0.00 | 39 | 1011.5 |
| 20260905235605 | 99 | 113 | 3.0 | 9.0 | 0.00 | 0.00 | 0.00 | 38 | 1011.5 |
| 20260905235105 | 99 | 123 | 3.0 | 12.0 | 0.00 | 0.00 | 0.00 | 38 | 1011.5 |
| 20260905234605 | 99 | 137 | 6.0 | 12.0 | 0.00 | 0.00 | 0.00 | 39 | 1011.5 |
| 20260905234105 | 99 | 173 | 5.0 | 13.0 | 0.00 | 0.00 | 0.00 | 39 | 1011.4 |
| 20260905233105 | 100 | 186 | 6.0 | 12.0 | 0.00 | 0.00 | 0.00 | 39 | 1011.3 |
| 20260905232605 | 100 | 148 | 8.0 | 12.0 | 0.00 | 0.00 | 0.00 | 38 | 1011.3 |
| 20260905232105 | 100 | 170 | 6.0 | 12.0 | 0.00 | 0.00 | 0.00 | 38 | 1011.3 |
| 20260905231605 | 100 | 167 | 5.0 | 12.0 | 0.00 | 0.00 | 0.00 | 38 | 1011.3 |
| 20260905230604 | 100 | 174 | 4.0 | 12.0 | 0.00 | 0.00 | 0.00 | 38 | 1011.3 |
| 20260905230105 | 100 | 168 | 7.0 | 15.0 | 0.00 | 0.00 | 0.00 | 38 | 1011.3 |
| 20260905225605 | 100 | 174 | 7.0 | 17.0 | 0.00 | 0.00 | 0.00 | 38 | 1011.3 |
| 20260905224605 | 100 | 136 | 6.0 | 14.0 | 0.00 | 0.00 | 0.00 | 38 | 1011.2 |
| 20260905223605 | 100 | 170 | 7.0 | 14.0 | 0.00 | 0.00 | 0.00 | 38 | 1011.2 |
| 20260905222605 | 100 | 129 | 9.0 | 16.0 | 0.00 | 0.00 | 0.00 | 38 | 1011.3 |
| 20260905222105 | 100 | 142 | 10.0 | 16.0 | 0.00 | 0.00 | 0.00 | 38 | 1011.2 |
| 20260905221106 | 101 | 177 | 7.0 | 12.0 | 0.00 | 0.00 | 0.00 | 37 | 1011.3 |
| 20260905220105 | 100 | 164 | 9.0 | 16.0 | 0.00 | 0.00 | 0.00 | 38 | 1011.4 |
| 20260905214605 | 101 | 181 | 9.0 | 14.0 | 0.00 | 0.00 | 0.00 | 38 | 1011.5 |
| 20260905214104 | 101 | 125 | 6.0 | 17.0 | 0.00 | 0.00 | 0.00 | 38 | 1011.6 |
| 20260905213605 | 101 | 139 | 9.0 | 17.0 | 0.00 | 0.00 | 0.00 | 38 | 1011.6 |
| 20260905213105 | 101 | 177 | 11.0 | 16.0 | 0.00 | 0.00 | 0.00 | 38 | 1011.6 |
| 20260905212105 | 101 | 172 | 8.0 | 18.0 | 0.00 | 0.00 | 0.00 | 37 | 1011.9 |
| 20260905211604 | 101 | 193 | 9.0 | 17.0 | 0.00 | 0.00 | 0.00 | 37 | 1011.9 |
| 20260905211104 | 100 | 171 | 9.0 | 15.0 | 0.00 | 0.00 | 0.00 | 38 | 1011.9 |
| 20260905210105 | 101 | 155 | 8.0 | 17.0 | 0.00 | 0.00 | 0.00 | 37 | 1012.1 |
| 20260905205604 | 101 | 160 | 9.0 | 15.0 | 0.00 | 0.00 | 0.00 | 38 | 1012.2 |